Printer-friendly version

IAU Minor Planet Center

Minor Planet Center

MPEC 2008-C99 : 2008 CE119

The following Minor Planet Electronic Circular may be linked-to from your own Web pages, but must not otherwise be redistributed electronically.


Read MPEC 2008-C98 Read MPEC 2008-C100


M.P.E.C. 2008-C99                                Issued 2008 Feb. 14, 19:47 UT

     The Minor Planet Electronic Circulars contain information on unusual
         minor planets and routine data on comets.  They are published
   on behalf of Commission 20 of the International Astronomical Union by the
          Minor Planet Center, Smithsonian Astrophysical Observatory,
                          Cambridge, MA 02138, U.S.A.

             Prepared using the Tamkin Foundation Computer Network

                              MPC@CFA.HARVARD.EDU
          URL http://www.cfa.harvard.edu/iau/mpc.html  ISSN 1523-6714

                                  2008 CE119

Observations:
     K08CB9E* C2008 02 13.30190 10 17 20.29 +04 10 41.2          20.5 V EC099G96
     K08CB9E  C2008 02 13.30828 10 17 21.48 +04 11 13.1          20.3 V EC099G96
     K08CB9E  C2008 02 13.31468 10 17 22.66 +04 11 45.6          20.6 V EC099G96
     K08CB9E  C2008 02 13.32104 10 17 23.85 +04 12 17.9          20.6 V EC099G96
     K08CB9E  C2008 02 13.35947 10 17 31.02 +04 15 33.3          20.5 V EC099G96
     K08CB9E  C2008 02 13.36991 10 17 32.96 +04 16 26.1          21.0 V EC099G96
     K08CB9E  C2008 02 13.38031 10 17 34.90 +04 17 19.0          20.6 V EC099G96
     K08CB9E  C2008 02 13.39082 10 17 36.88 +04 18 12.5          20.6 V EC099G96
     K08CB9E  C2008 02 13.41654 10 17 41.78 +04 20 23.3          20.7 V EC099G96
     K08CB9E  C2008 02 13.42385 10 17 43.18 +04 21 00.6          20.8 V EC099G96
     K08CB9E  C2008 02 13.43119 10 17 44.62 +04 21 38.8          20.0 V EC099G96
     K08CB9E  C2008 02 13.43859 10 17 46.06 +04 22 15.4          20.6 V EC099G96
     K08CB9E  C2008 02 14.28890 10 21 14.61 +05 37 21.4          20.8 V EC099G96
     K08CB9E  C2008 02 14.29561 10 21 15.94 +05 37 57.7          20.7 V EC099G96
     K08CB9E  C2008 02 14.30241 10 21 17.35 +05 38 35.7          20.8 V EC099G96
     K08CB9E  C2008 02 14.30907 10 21 18.68 +05 39 12.4          20.9 V EC099G96
     K08CB9E  C2008 02 14.32174 10 21 21.28 +05 40 22.4          21.4 V EC099G96
     K08CB9E  C2008 02 14.32774 10 21 22.48 +05 40 54.8          21.2 V EC099G96
     K08CB9E  C2008 02 14.33380 10 21 23.73 +05 41 27.9          20.5 V EC099G96

Observer details:
G96 Mt. Lemmon Survey.  Observer A. D. Grauer.  Measurers E. C. Beshore,
    A. Boattini, G. J. Garradd, A. R. Gibbs, A. D. Grauer, R. E. Hill,
    R. A. Kowalski, S. M. Larson, R. H. McNaught.  1.5-m reflector + CCD.

Orbital elements:
2008 CE119                                               Earth MOID = 0.0487 AU
Epoch 2007 Oct. 27.0 TT = JDT 2454400.5                 MPC
M 242.25507              (2000.0)            P               Q
n   0.73738030     Peri.   48.79800     -0.95539130     +0.28630422
a   1.2134122      Node   147.64454     -0.29486847     -0.91075349
e   0.1775748      Incl.    7.78668     -0.01673484     -0.29758691
P   1.34           H   25.6           G   0.15           U   8
Residuals in seconds of arc
080213 G96  0.1+  0.3+    080213 G96  0.1-  0.1-    080214 G96  0.0   0.1+
080213 G96  0.1+  0.1-    080213 G96  0.1-  0.1-    080214 G96  0.3-  0.2+
080213 G96  0.1-  0.1-    080213 G96  0.2-  0.0     080214 G96  0.2+  0.5+
080213 G96  0.0   0.1-    080213 G96  0.1+  0.8+    080214 G96  0.0   0.1-
080213 G96  0.2+  0.1+    080213 G96  0.1+  0.3-    080214 G96  0.4+  0.3-
080213 G96  0.0   0.2-    080214 G96  0.1+  0.1+
080213 G96  0.1-  0.1-    080214 G96  0.4-  0.5-

Ephemeris:
2008 CE119               a,e,i = 1.21, 0.18, 8                   q = 0.9979
Date    TT    R. A. (2000) Decl.     Delta      r     Elong.  Phase     V
2008 02 14    10 20.03   +05 12.2    0.0714   1.057   168.6    10.7    20.7
2008 02 19    10 44.62   +14 14.1    0.0593   1.047   170.4     9.0    20.2
2008 02 24    11 22.22   +26 35.5    0.0510   1.037   158.6    20.4    20.2
2008 02 29    12 20.62   +40 36.7    0.0477   1.028   141.0    37.3    20.6
2008 03 05    13 45.17   +51 46.9    0.0499   1.020   123.4    54.2    21.1
2008 03 10    15 21.60   +56 45.1    0.0564   1.013   109.5    67.5    21.8
2008 03 15    16 41.28   +56 49.4    0.0655   1.008    99.8    76.5    22.4

Sonia Keys                   (C) Copyright 2008 MPC           M.P.E.C. 2008-C99

Read MPEC 2008-C98 Read MPEC 2008-C100


Our Web policy. Index to the CBAT/MPC/ICQ pages.


Valid HTML 4.01!